Year,Month,Day,Hour,Minute,Value (Times are PST for temperature in C)
2017,01,20,10,09,7.40
2017,01,20,10,10,7.40
2017,01,20,10,11,7.40
2017,01,20,10,12,7.50
2017,01,20,10,13,7.50
2017,01,20,10,14,7.50
2017,01,20,10,15,7.60
2017,01,20,10,16,7.60
2017,01,20,10,17,7.60
2017,01,20,10,18,7.70
2017,01,20,10,19,7.70
2017,01,20,10,20,7.70
2017,01,20,10,21,7.70
2017,01,20,10,22,7.80
2017,01,20,10,23,7.80
2017,01,20,10,24,7.80
2017,01,20,10,25,7.80
2017,01,20,10,26,7.80
2017,01,20,10,27,7.80
2017,01,20,10,28,7.90
2017,01,20,10,29,7.90
2017,01,20,10,30,7.90
2017,01,20,10,31,7.90
2017,01,20,10,32,7.90
2017,01,20,10,33,7.90
2017,01,20,10,34,8.00
2017,01,20,10,35,8.00
2017,01,20,10,36,8.00
2017,01,20,10,37,8.10
2017,01,20,10,38,8.10
2017,01,20,10,39,8.10
2017,01,20,10,40,8.20
2017,01,20,10,41,8.20
2017,01,20,10,42,8.20
2017,01,20,10,43,8.20
2017,01,20,10,44,8.30
2017,01,20,10,45,8.30
2017,01,20,10,46,8.30
2017,01,20,10,47,8.30
2017,01,20,10,48,8.30
2017,01,20,10,49,8.40
2017,01,20,10,50,8.40
2017,01,20,10,51,8.40
2017,01,20,10,52,8.40
2017,01,20,10,53,8.40
2017,01,20,10,54,8.40
2017,01,20,10,55,8.30
2017,01,20,10,56,8.30
2017,01,20,10,57,8.30
2017,01,20,10,58,8.30
2017,01,20,10,59,8.30
2017,01,20,11,00,8.40
2017,01,20,11,01,8.40
2017,01,20,11,02,8.40
2017,01,20,11,03,8.40
2017,01,20,11,04,8.40
2017,01,20,11,05,8.40
2017,01,20,11,06,8.50
2017,01,20,11,07,8.50
2017,01,20,11,08,8.50
2017,01,20,11,09,8.60
2017,01,20,11,10,8.60
2017,01,20,11,11,8.70
2017,01,20,11,12,8.70
2017,01,20,11,13,8.70
2017,01,20,11,14,8.80
2017,01,20,11,15,8.80
2017,01,20,11,16,8.80
2017,01,20,11,17,8.90
2017,01,20,11,18,9.00
2017,01,20,11,19,9.00
2017,01,20,11,20,9.00
2017,01,20,11,21,9.00
2017,01,20,11,22,9.00
2017,01,20,11,23,9.00
2017,01,20,11,24,9.00
2017,01,20,11,25,8.90
2017,01,20,11,26,8.90
2017,01,20,11,27,8.90
2017,01,20,11,28,8.90
2017,01,20,11,29,9.00
2017,01,20,11,30,9.00
2017,01,20,11,31,9.10
2017,01,20,11,32,9.10
2017,01,20,11,33,9.10
2017,01,20,11,34,9.10
2017,01,20,11,35,9.20
2017,01,20,11,36,9.10
2017,01,20,11,37,9.20
2017,01,20,11,38,9.30
2017,01,20,11,39,9.30
2017,01,20,11,40,9.40
2017,01,20,11,41,9.50
2017,01,20,11,42,9.60
2017,01,20,11,43,9.70
2017,01,20,11,44,9.70
2017,01,20,11,45,9.70
2017,01,20,11,46,9.70
2017,01,20,11,47,9.60
2017,01,20,11,48,9.60
2017,01,20,11,49,9.60
2017,01,20,11,50,9.50
2017,01,20,11,51,9.40
2017,01,20,11,52,9.40
2017,01,20,11,53,9.40
2017,01,20,11,54,9.30
2017,01,20,11,55,9.30
2017,01,20,11,56,9.20
2017,01,20,11,57,9.20
2017,01,20,11,58,9.20
2017,01,20,11,59,9.10
2017,01,20,12,00,9.10
2017,01,20,12,01,9.10
2017,01,20,12,02,9.10
2017,01,20,12,03,9.10
2017,01,20,12,04,9.10
2017,01,20,12,05,9.10
2017,01,20,12,06,9.20
2017,01,20,12,07,9.20
2017,01,20,12,08,9.20
2017,01,20,12,09,9.20
2017,01,20,12,10,9.30
2017,01,20,12,11,9.30
2017,01,20,12,12,9.30
2017,01,20,12,13,9.30
2017,01,20,12,14,9.30
2017,01,20,12,15,9.40
2017,01,20,12,16,9.40
2017,01,20,12,17,9.50
2017,01,20,12,18,9.60
2017,01,20,12,19,9.60
2017,01,20,12,20,9.60
2017,01,20,12,21,9.60
2017,01,20,12,22,9.60
2017,01,20,12,23,9.60
2017,01,20,12,24,9.60
2017,01,20,12,25,9.50
2017,01,20,12,26,9.60
2017,01,20,12,27,9.60
2017,01,20,12,28,9.60
2017,01,20,12,29,9.60
2017,01,20,12,30,9.60
2017,01,20,12,31,9.70
2017,01,20,12,32,9.70
2017,01,20,12,33,9.70
2017,01,20,12,34,9.70
2017,01,20,12,35,9.70
2017,01,20,12,36,9.80
2017,01,20,12,37,9.80
2017,01,20,12,38,9.80
2017,01,20,12,39,9.90
2017,01,20,12,40,9.90
2017,01,20,12,41,9.90
2017,01,20,12,42,9.90
2017,01,20,12,43,9.90
2017,01,20,12,44,9.90
2017,01,20,12,45,10.00
2017,01,20,12,46,10.00
2017,01,20,12,47,10.00
2017,01,20,12,48,10.00
2017,01,20,12,49,10.10
2017,01,20,12,50,10.10
2017,01,20,12,51,10.10
2017,01,20,12,52,10.10
2017,01,20,12,53,10.10
2017,01,20,12,54,10.10
2017,01,20,12,55,10.10
2017,01,20,12,56,10.10
2017,01,20,12,57,10.10
2017,01,20,12,58,10.20
2017,01,20,12,59,10.20
2017,01,20,13,00,10.20
2017,01,20,13,01,10.20
2017,01,20,13,02,10.20
2017,01,20,13,03,10.20
2017,01,20,13,04,10.20
2017,01,20,13,05,10.20
2017,01,20,13,06,10.20
2017,01,20,13,07,10.20
2017,01,20,13,08,10.20
2017,01,20,13,09,10.20
2017,01,20,13,10,10.20
2017,01,20,13,11,10.20
2017,01,20,13,12,10.20
2017,01,20,13,13,10.20
2017,01,20,13,14,10.20
2017,01,20,13,15,10.30
2017,01,20,13,16,10.30
2017,01,20,13,17,10.40
2017,01,20,13,18,10.40
2017,01,20,13,19,10.50
2017,01,20,13,20,10.50
2017,01,20,13,21,10.40
2017,01,20,13,22,10.50
2017,01,20,13,23,10.50
2017,01,20,13,24,10.50
2017,01,20,13,25,10.50
2017,01,20,13,26,10.50
2017,01,20,13,27,10.50
2017,01,20,13,28,10.50
2017,01,20,13,29,10.50
2017,01,20,13,30,10.40
2017,01,20,13,31,10.40
2017,01,20,13,32,10.40
2017,01,20,13,33,10.40
2017,01,20,13,34,10.40
2017,01,20,13,35,10.30
2017,01,20,13,36,10.30
2017,01,20,13,37,10.30
2017,01,20,13,38,10.30
2017,01,20,13,39,10.30
2017,01,20,13,40,10.20
2017,01,20,13,41,10.20
2017,01,20,13,42,10.20
2017,01,20,13,43,10.20
2017,01,20,13,44,10.20
2017,01,20,13,45,10.20
2017,01,20,13,46,10.20
2017,01,20,13,47,10.20
2017,01,20,13,48,10.20
2017,01,20,13,49,10.20
2017,01,20,13,50,10.10
2017,01,20,13,51,10.10
2017,01,20,13,52,10.10
2017,01,20,13,53,10.10
2017,01,20,13,54,10.10
2017,01,20,13,55,10.10
2017,01,20,13,56,10.10
2017,01,20,13,57,10.10
2017,01,20,13,58,10.10
2017,01,20,13,59,10.10
2017,01,20,14,00,10.10
2017,01,20,14,01,10.10
2017,01,20,14,02,10.10
2017,01,20,14,03,10.20
2017,01,20,14,04,10.20
2017,01,20,14,05,10.20
2017,01,20,14,06,10.20
2017,01,20,14,07,10.20
2017,01,20,14,08,10.20
2017,01,20,14,09,10.20
2017,01,20,14,10,10.10
2017,01,20,14,11,10.10
2017,01,20,14,12,10.10
2017,01,20,14,13,10.10
2017,01,20,14,14,10.10
2017,01,20,14,15,10.00
2017,01,20,14,16,10.00
2017,01,20,14,17,9.90
2017,01,20,14,18,9.90
2017,01,20,14,19,9.80
2017,01,20,14,20,9.80
2017,01,20,14,21,9.70
2017,01,20,14,22,9.70
2017,01,20,14,23,9.70
2017,01,20,14,24,9.60
2017,01,20,14,25,9.60
2017,01,20,14,26,9.60
2017,01,20,14,27,9.60
2017,01,20,14,28,9.60
2017,01,20,14,29,9.50
2017,01,20,14,30,9.50
2017,01,20,14,31,9.50
2017,01,20,14,32,9.40
2017,01,20,14,33,9.40
2017,01,20,14,34,9.40
2017,01,20,14,35,9.30
2017,01,20,14,36,9.30
2017,01,20,14,37,9.30
2017,01,20,14,38,9.30
2017,01,20,14,39,9.30
2017,01,20,14,40,9.30
2017,01,20,14,41,9.30
2017,01,20,14,42,9.30
2017,01,20,14,43,9.30
2017,01,20,14,44,9.30
2017,01,20,14,45,9.30
2017,01,20,14,46,9.30
2017,01,20,14,47,9.30
2017,01,20,14,48,9.30
2017,01,20,14,49,9.30
2017,01,20,14,50,9.30
2017,01,20,14,51,9.30
2017,01,20,14,52,9.30
2017,01,20,14,53,9.30
2017,01,20,14,54,9.30
2017,01,20,14,55,9.30
2017,01,20,14,56,9.20
2017,01,20,14,57,9.20
2017,01,20,14,58,9.20
2017,01,20,14,59,9.20
2017,01,20,15,00,9.20
2017,01,20,15,01,9.20
2017,01,20,15,02,9.20
2017,01,20,15,03,9.20
2017,01,20,15,04,9.20
2017,01,20,15,05,9.20
2017,01,20,15,06,9.20
2017,01,20,15,07,9.20
2017,01,20,15,08,9.20
2017,01,20,15,09,9.20
2017,01,20,15,10,9.20
2017,01,20,15,11,9.20
2017,01,20,15,12,9.20
2017,01,20,15,13,9.20
2017,01,20,15,14,9.20
2017,01,20,15,15,9.20
2017,01,20,15,16,9.20
2017,01,20,15,17,9.20
2017,01,20,15,18,9.20
2017,01,20,15,19,9.20
2017,01,20,15,20,9.20
2017,01,20,15,21,9.20
2017,01,20,15,22,9.20
2017,01,20,15,23,9.20
2017,01,20,15,24,9.30
2017,01,20,15,25,9.30
2017,01,20,15,26,9.30
2017,01,20,15,27,9.30
2017,01,20,15,28,9.30
2017,01,20,15,29,9.30
2017,01,20,15,30,9.30
2017,01,20,15,31,9.30
2017,01,20,15,32,9.30
2017,01,20,15,33,9.30
2017,01,20,15,34,9.30
2017,01,20,15,35,9.30
2017,01,20,15,36,9.30
2017,01,20,15,37,9.30
2017,01,20,15,38,9.30
2017,01,20,15,39,9.30
2017,01,20,15,40,9.30
2017,01,20,15,41,9.30
2017,01,20,15,42,9.30
2017,01,20,15,43,9.30
2017,01,20,15,44,9.30
2017,01,20,15,45,9.30
2017,01,20,15,46,9.30
2017,01,20,15,47,9.30
2017,01,20,15,48,9.30
2017,01,20,15,49,9.30
2017,01,20,15,50,9.30
2017,01,20,15,51,9.30
2017,01,20,15,52,9.30
2017,01,20,15,53,9.30
2017,01,20,15,54,9.30
2017,01,20,15,55,9.30
2017,01,20,15,56,9.30
